| time (UTC) | temp F | wind direction | speed MPH | gust MPH | rain 1hr in | rain 24hr in | rain mn in | humidity % | barometer mb |
| 20260507130057 | 54 | 352 | 1.0 | 4.0 | 0.00 | 0.00 | 0.00 | 89 | 1016.2 |
| 20260507124556 | 54 | 5 | 2.0 | 3.0 | 0.00 | 0.00 | 0.00 | 89 | 1015.9 |
| 20260507123337 | 54 | 360 | 1.0 | 2.0 | 0.00 | 0.00 | 0.00 | 89 | 1016.0 |
| 20260507121946 | 54 | 33 | 1.0 | 2.0 | 0.00 | 0.00 | 0.00 | 88 | 1015.9 |
| 20260507120516 | 54 | 27 | 2.0 | 3.0 | 0.00 | 0.00 | 0.00 | 88 | 1015.9 |
| 20260507115030 | 54 | 35 | 1.0 | 2.0 | 0.00 | 0.00 | 0.00 | 88 | 1015.9 |
| 20260507113057 | 54 | 27 | 1.0 | 2.0 | 0.00 | 0.00 | 0.00 | 88 | 1015.9 |
| 20260507111554 | 54 | 16 | 1.0 | 4.0 | 0.00 | 0.00 | 0.00 | 88 | 1016.0 |
| 20260507110107 | 55 | 16 | 1.0 | 3.0 | 0.00 | 0.00 | 0.00 | 88 | 1016.0 |
| 20260507104556 | 54 | 19 | 1.0 | 3.0 | 0.00 | 0.00 | 0.00 | 88 | 1016.0 |
| 20260507103058 | 55 | 12 | 2.0 | 4.0 | 0.00 | 0.00 | 0.00 | 88 | 1016.1 |
| 20260507101558 | 55 | 29 | 3.0 | 4.0 | 0.00 | 0.00 | 0.00 | 87 | 1016.2 |
| 20260507100100 | 55 | 34 | 3.0 | 4.0 | 0.00 | 0.00 | 0.00 | 87 | 1016.0 |
| 20260507094610 | 55 | 14 | 3.0 | 4.0 | 0.00 | 0.00 | 0.00 | 87 | 1016.3 |
| 20260507093101 | 55 | 13 | 3.0 | 4.0 | 0.00 | 0.00 | 0.00 | 87 | 1016.5 |
| 20260507091640 | 56 | 29 | 2.0 | 4.0 | 0.00 | 0.00 | 0.00 | 87 | 1016.5 |
| 20260507090106 | 56 | 26 | 2.0 | 5.0 | 0.00 | 0.00 | 0.00 | 87 | 1016.7 |
| 20260507084559 | 56 | 40 | 2.0 | 3.0 | 0.00 | 0.00 | 0.00 | 87 | 1016.8 |
| 20260507083056 | 56 | 18 | 2.0 | 3.0 | 0.00 | 0.00 | 0.00 | 87 | 1016.9 |
| 20260507082111 | 57 | 55 | 2.0 | 3.0 | 0.00 | 0.00 | 0.00 | 86 | 1017.2 |
| 20260507081912 | 57 | 55 | 2.0 | 3.0 | 0.00 | 0.00 | 0.00 | 86 | 1017.2 |
| 20260507080553 | 58 | 0 | 0.0 | 3.0 | 0.00 | 0.00 | 0.00 | 87 | 1017.4 |
| 20260507080402 | 58 | 0 | 0.0 | 3.0 | 0.00 | 0.00 | 0.00 | 87 | 1017.4 |
| 20260507074556 | 59 | 325 | 2.0 | 3.0 | 0.00 | 0.00 | 0.00 | 87 | 1017.3 |
| 20260507073101 | 59 | 0 | 0.0 | 0.0 | 0.00 | 0.00 | 0.00 | 86 | 1017.4 |
| 20260507071610 | 59 | 0 | 0.0 | 0.0 | 0.00 | 0.00 | 0.00 | 86 | 1017.4 |
| 20260507070116 | 59 | 0 | 0.0 | 0.0 | 0.00 | 0.00 | 0.00 | 86 | 1017.5 |
| 20260507064611 | 58 | 0 | 0.0 | 0.0 | 0.00 | 0.00 | 0.00 | 85 | 1017.7 |
| 20260507063104 | 58 | 0 | 0.0 | 0.0 | 0.00 | 0.00 | 0.00 | 85 | 1017.8 |
| 20260507061613 | 59 | 0 | 0.0 | 0.0 | 0.00 | 0.00 | 0.00 | 84 | 1017.7 |
| 20260507060110 | 59 | 123 | 1.0 | 2.0 | 0.00 | 0.00 | 0.00 | 82 | 1017.8 |
| 20260507054601 | 59 | 123 | 1.0 | 3.0 | 0.00 | 0.00 | 0.00 | 82 | 1017.7 |
| 20260507053057 | 60 | 238 | 1.0 | 2.0 | 0.00 | 0.00 | 0.00 | 81 | 1017.8 |
| 20260507051556 | 60 | 0 | 0.0 | 2.0 | 0.00 | 0.00 | 0.00 | 81 | 1017.7 |
| 20260507050057 | 60 | 242 | 1.0 | 3.0 | 0.00 | 0.00 | 0.00 | 81 | 1017.5 |
| 20260507044557 | 60 | 257 | 2.0 | 6.0 | 0.00 | 0.00 | 0.00 | 80 | 1017.5 |
| 20260507043548 | 60 | 244 | 2.0 | 5.0 | 0.00 | 0.00 | 0.00 | 80 | 1017.4 |
| 20260507041849 | 61 | 235 | 3.0 | 7.0 | 0.00 | 0.00 | 0.00 | 81 | 1017.3 |
| 20260507041716 | 61 | 235 | 3.0 | 7.0 | 0.00 | 0.00 | 0.00 | 81 | 1017.3 |
| 20260507040104 | 61 | 273 | 5.0 | 8.0 | 0.00 | 0.00 | 0.00 | 81 | 1017.3 |
| 20260507034600 | 61 | 242 | 4.0 | 7.0 | 0.00 | 0.00 | 0.00 | 82 | 1017.2 |
| 20260507033055 | 61 | 257 | 4.0 | 9.0 | 0.00 | 0.00 | 0.00 | 81 | 1016.9 |
| 20260507031553 | 62 | 264 | 3.0 | 8.0 | 0.00 | 0.00 | 0.00 | 80 | 1016.8 |
| 20260507030056 | 62 | 263 | 6.0 | 9.0 | 0.00 | 0.00 | 0.00 | 79 | 1016.7 |
| 20260507024600 | 62 | 254 | 5.0 | 11.0 | 0.00 | 0.00 | 0.00 | 77 | 1016.6 |
| 20260507023055 | 63 | 245 | 5.0 | 11.0 | 0.00 | 0.00 | 0.00 | 74 | 1016.4 |
| 20260507021558 | 64 | 254 | 7.0 | 10.0 | 0.00 | 0.00 | 0.00 | 73 | 1016.4 |
| 20260507020057 | 64 | 268 | 8.0 | 11.0 | 0.00 | 0.00 | 0.00 | 71 | 1016.4 |
| 20260507014559 | 64 | 232 | 8.0 | 12.0 | 0.00 | 0.00 | 0.00 | 70 | 1016.3 |
| 20260507013056 | 65 | 211 | 7.0 | 11.0 | 0.00 | 0.00 | 0.00 | 69 | 1016.2 |
| 20260507011557 | 65 | 254 | 6.0 | 13.0 | 0.00 | 0.00 | 0.00 | 69 | 1016.2 |
| 20260507010111 | 65 | 254 | 9.0 | 14.0 | 0.00 | 0.00 | 0.00 | 68 | 1016.2 |
| 20260507005027 | 66 | 285 | 7.0 | 14.0 | 0.00 | 0.00 | 0.00 | 67 | 1016.2 |
| 20260507003101 | 66 | 294 | 7.0 | 12.0 | 0.00 | 0.00 | 0.00 | 67 | 1016.1 |
| 20260507001600 | 66 | 290 | 8.0 | 14.0 | 0.00 | 0.00 | 0.00 | 67 | 1015.9 |
| 20260507000111 | 67 | 279 | 10.0 | 15.0 | 0.00 | 0.00 | 0.00 | 66 | 1015.9 |
| 20260506234616 | 67 | 228 | 7.0 | 14.0 | 0.00 | 0.00 | 0.00 | 65 | 1015.9 |
| 20260506233110 | 67 | 241 | 8.0 | 15.0 | 0.00 | 0.00 | 0.00 | 66 | 1015.9 |
| 20260506231558 | 66 | 241 | 9.0 | 16.0 | 0.00 | 0.00 | 0.00 | 69 | 1016.0 |
| 20260506230057 | 67 | 243 | 8.0 | 15.0 | 0.00 | 0.00 | 0.00 | 67 | 1016.0 |
| 20260506224559 | 66 | 227 | 9.0 | 16.0 | 0.00 | 0.00 | 0.00 | 68 | 1016.1 |
| 20260506223101 | 67 | 275 | 10.0 | 16.0 | 0.00 | 0.00 | 0.00 | 67 | 1016.2 |
| 20260506221600 | 67 | 218 | 11.0 | 18.0 | 0.00 | 0.00 | 0.00 | 67 | 1016.2 |
| 20260506220057 | 67 | 269 | 10.0 | 18.0 | 0.00 | 0.00 | 0.00 | 66 | 1016.6 |
| 20260506214601 | 67 | 248 | 9.0 | 13.0 | 0.00 | 0.00 | 0.00 | 65 | 1016.6 |
| 20260506213056 | 66 | 214 | 8.0 | 16.0 | 0.00 | 0.00 | 0.00 | 68 | 1016.8 |
| 20260506212050 | 67 | 228 | 10.0 | 17.0 | 0.00 | 0.00 | 0.00 | 67 | 1016.9 |
| 20260506211948 | 67 | 228 | 10.0 | 17.0 | 0.00 | 0.00 | 0.00 | 67 | 1016.9 |
| 20260506210455 | 65 | 230 | 11.0 | 16.0 | 0.00 | 0.00 | 0.00 | 67 | 1016.8 |
| 20260506204604 | 67 | 233 | 9.0 | 17.0 | 0.00 | 0.00 | 0.00 | 65 | 1016.9 |
| 20260506203058 | 66 | 225 | 11.0 | 15.0 | 0.00 | 0.00 | 0.00 | 66 | 1016.9 |
| 20260506201554 | 67 | 226 | 9.0 | 15.0 | 0.00 | 0.00 | 0.00 | 65 | 1017.0 |
| 20260506200058 | 67 | 228 | 10.0 | 16.0 | 0.00 | 0.00 | 0.00 | 64 | 1017.2 |
| 20260506194555 | 66 | 236 | 10.0 | 17.0 | 0.00 | 0.00 | 0.00 | 68 | 1017.1 |
| 20260506193053 | 66 | 257 | 9.0 | 14.0 | 0.00 | 0.00 | 0.00 | 66 | 1017.3 |
| 20260506191557 | 67 | 234 | 7.0 | 14.0 | 0.00 | 0.00 | 0.00 | 65 | 1017.4 |
| 20260506190058 | 67 | 268 | 7.0 | 13.0 | 0.00 | 0.00 | 0.00 | 65 | 1017.5 |
| 20260506184556 | 66 | 232 | 9.0 | 13.0 | 0.00 | 0.00 | 0.00 | 66 | 1017.6 |
| 20260506183056 | 67 | 240 | 6.0 | 11.0 | 0.00 | 0.00 | 0.00 | 63 | 1017.7 |
| 20260506181554 | 67 | 311 | 6.0 | 11.0 | 0.00 | 0.00 | 0.00 | 58 | 1017.8 |
| 20260506180058 | 66 | 323 | 6.0 | 13.0 | 0.00 | 0.00 | 0.00 | 61 | 1017.9 |
| 20260506174600 | 65 | 352 | 6.0 | 12.0 | 0.00 | 0.00 | 0.00 | 62 | 1018.1 |
| 20260506173513 | 65 | 291 | 7.0 | 10.0 | 0.00 | 0.00 | 0.00 | 63 | 1018.1 |
| 20260506172000 | 64 | 317 | 5.0 | 9.0 | 0.00 | 0.00 | 0.00 | 63 | 1018.4 |
| 20260506170434 | 63 | 302 | 6.0 | 12.0 | 0.00 | 0.00 | 0.00 | 65 | 1018.3 |
| 20260506170241 | 63 | 302 | 6.0 | 12.0 | 0.00 | 0.00 | 0.00 | 65 | 1018.3 |
| 20260506164555 | 63 | 287 | 5.0 | 10.0 | 0.00 | 0.00 | 0.00 | 66 | 1018.2 |
| 20260506163056 | 62 | 323 | 3.0 | 9.0 | 0.00 | 0.00 | 0.00 | 68 | 1018.3 |
| 20260506161609 | 62 | 290 | 4.0 | 8.0 | 0.00 | 0.00 | 0.00 | 69 | 1018.1 |
| 20260506160058 | 60 | 259 | 2.0 | 7.0 | 0.00 | 0.00 | 0.00 | 71 | 1018.3 |
| 20260506154601 | 61 | 322 | 3.0 | 7.0 | 0.00 | 0.01 | 0.00 | 71 | 1018.3 |
| 20260506153056 | 61 | 344 | 2.0 | 4.0 | 0.00 | 0.01 | 0.00 | 71 | 1018.4 |
| 20260506151559 | 60 | 28 | 3.0 | 5.0 | 0.00 | 0.01 | 0.00 | 72 | 1018.3 |
| 20260506144611 | 58 | 51 | 1.0 | 4.0 | 0.00 | 0.01 | 0.00 | 79 | 1018.2 |
| 20260506143059 | 56 | 37 | 3.0 | 5.0 | 0.00 | 0.01 | 0.00 | 80 | 1018.1 |
| 20260506141559 | 55 | 23 | 3.0 | 5.0 | 0.00 | 0.01 | 0.00 | 82 | 1018.3 |
| 20260506140127 | 54 | 32 | 3.0 | 5.0 | 0.00 | 0.01 | 0.00 | 84 | 1018.1 |
| 20260506135035 | 53 | 19 | 4.0 | 7.0 | 0.00 | 0.07 | 0.00 | 85 | 1018.0 |
| 20260506133554 | 52 | 13 | 4.0 | 6.0 | 0.00 | 0.07 | 0.00 | 85 | 1017.9 |
| 20260506133441 | 52 | 13 | 4.0 | 6.0 | 0.00 | 0.07 | 0.00 | 85 | 1017.9 |
| 20260506131554 | 52 | 22 | 3.0 | 6.0 | 0.00 | 0.07 | 0.00 | 85 | 1017.6 |